This is the latest recevied weather packets stored in our database for station/object KE0TNI-13. If no packets are shown the sender has not sent any weather packets the latest 10 day(s).
| Time | Temp. | Humidity | Pressure | Rain* | Wind** | Luminosity | Snow |
|---|---|---|---|---|---|---|---|
| 1777882879 | 2.78° C | 52% | 1017.1 hPa | 0 mm | - | 0 W/m² | - |
| 1777882576 | 2.78° C | 54% | 1017.4 hPa | 0 mm | - | 0 W/m² | - |
| 1777882271 | 2.78° C | 53% | 1017.2 hPa | 0 mm | - | 0 W/m² | - |
| 1777881969 | 3.33° C | 52% | 1017.5 hPa | 0 mm | - | 0 W/m² | - |
| 1777881665 | 3.33° C | 50% | 1017.5 hPa | 0 mm | - | 0 W/m² | - |
| 1777881362 | 2.78° C | 50% | 1017.5 hPa | 0 mm | - | 0 W/m² | - |
| 1777881059 | 2.78° C | 50% | 1017.6 hPa | 0 mm | - | 0 W/m² | - |
| 1777880757 | 3.33° C | 53% | 1017.8 hPa | 0 mm | - | 0 W/m² | - |
| 1777880455 | 3.33° C | 51% | 1017.6 hPa | 0 mm | - | 0 W/m² | - |
| 1777880153 | 3.89° C | 52% | 1017.8 hPa | 0 mm | - | 0 W/m² | - |
| 1777879851 | 3.33° C | 50% | 1017.9 hPa | 0 mm | - | 0 W/m² | - |
| 1777879549 | 3.33° C | 51% | 1018 hPa | 0 mm | - | 0 W/m² | - |
| 1777879245 | 3.89° C | 48% | 1017.6 hPa | 0 mm | - | 0 W/m² | - |
| 1777878942 | 3.89° C | 50% | 1017.9 hPa | 0 mm | - | 0 W/m² | - |
| 1777878639 | 3.89° C | 49% | 1017.9 hPa | 0 mm | - | 0 W/m² | - |
| 1777878337 | 3.89° C | 48% | 1018 hPa | 0 mm | - | 0 W/m² | - |
| 1777878032 | 4.44° C | 53% | 1018 hPa | 0 mm | - | 0 W/m² | - |
| 1777877728 | 4.44° C | 48% | 1018.2 hPa | 0 mm | - | 0 W/m² | - |
| 1777877426 | 5° C | 47% | 1018 hPa | 0 mm | - | 0 W/m² | - |
| 1777877123 | 5° C | 48% | 1018 hPa | 0 mm | - | 0 W/m² | - |
| 1777876820 | 5° C | 48% | 1017.9 hPa | 0 mm | - | 0 W/m² | - |
| 1777876518 | 5° C | 46% | 1018.4 hPa | 0 mm | - | 0 W/m² | - |
| 1777876215 | 5° C | 48% | 1018.4 hPa | 0 mm | - | 0 W/m² | - |
| 1777875911 | 5.56° C | 48% | 1018 hPa | 0 mm | - | 0 W/m² | - |
| 1777875607 | 5.56° C | 48% | 1018 hPa | 0 mm | - | 0 W/m² | - |
* Rain latest hour (hover to see other rain measurements)
** Current wind speed in m/s (hover to see current wind gust speed)